Location: Huesca
(42.1318°N, 0.4078°W)
Time: 23:17:20
(UTC+02:00)

CUTE 1.7 + AOD 2 - Pass Details

Date: 02 May 2024
Orbit: 569 x 586 km, 97.8° (Epoch: 26 May)

Event Time Altitude Azimuth Distance (km) Brightness Sun altitude
Rises 04:28:44 0° 32° (NNE) 2,780 ? -22.8°
Maximum altitude 04:34:04 15° 92° (E) 1,590 ? -22.2°
Drops below altitude 10° 04:36:21 10° 126° (SE) 1,868 ? -21.9°
Enters shadow 04:37:42 - 140° (SE) 2,229 ? -21.7°
